FENGYUN 1C DEB, 35144

Orbit data source: Space-Track

FENGYUN 1C DEB, 35144 is space debris in SSO originally from a launch on Mon, 10 May 1999 UTC launched from the Taiyaun Space Center, China (TSC). Fengyun 1C debris stems from the Chinese weather satellite Fengyun-1C, which was intentionally destroyed by a Chinese anti-satellite missile in 2007. This event dramatically increased the amount of space debris, with thousands of trackable fragments posing hazards to satellites and human spaceflight. The Fengyun 1C debris cloud has become a focal point in discussions about space sustainability and the need for international regulations to prevent the creation of new debris.

Loading next visibility...
Identifier
35144, 1999-025DLY
Orbit
SSO
Country
Flag of CNCN / PRC
Related business
Manufacturer
Unknown
Mission
Spacecraft
Bus & Motor
Unknown
Mass
Unknown
Launch date (UTC)
1999-05-10 (27 years ago)
Launch vehicle
Unknown
Launch site
Taiyaun Space Center, China (TSC)
Object type
Payload
Rocket body
Debris
Shape & HBR
Unknown shape, 0.1 m
Radar Cross Section
Small (<0.1 m²)

Expand to show TLE details & history
Last TLE update: 10 hours ago

TLE from 10 hours ago
0 FENGYUN 1C DEB
1 35144U 99025DLY 26256.62677307  .00007212  00000-0  13317-2 0  9990
2 35144  98.7137  31.9451 0024353 232.9394 126.9581 14.65584663692328
Epoch: 2026-09-13T15:02Z
TLE epoch observation values (Epoch: 2026-09-13T15:02:33.193Z)
Latitude
0.00003°
Longitude
173.68808°
Altitude
688.531 km
Speed
7.507 km/s
True Right ascension
02h 07m 46s
True Declination
0° 00' 00"
Sunlit
Object was in full shadow at epoch
Visualization orbit readout
Latitude
Unknown
Longitude
Unknown
Altitude
Unknown
Speed
Unknown
Apparent Right ascension
Unknown
Apparent Declination
Unknown
Sunlit
N/A
Visualization observer readout
Local Sidereal Time
17:48:36
Azimuth
Unknown
Elevation
Unknown
Doppler factor
Unknown
Orbital elements
Apogee altitude
689.467 km
Perigee altitude
655.127 km
Semi-major axis
7,050.434 km
Eccentricity
0.00244
Inclination
98.7137°
RAAN
31.9451°
Arg. of periapsis
232.9394°
True anomaly
127.18069°
Mean anomaly
126.9581°
Eccentric anomaly
127.06943°
Mean motion
3.66623 °/min
Orbital period
98.19 mins
BSTAR
0.0013317
Loading maneuver chart data...
Computing Atmospheric mass density...
Loading historical data...
Loading historical data...
Loading historical data...
Loading historical data...
Loading historical data...
Loading historical data...
Loading historical data...

Documentation

Showing up to 5 results
|